Tracking 29892 objects as of 21-Nov-2024
HD Live streaming from Space Station
objects crossing your sky now

NAVSPASUR ROD 1

Track NAVSPASUR ROD 1 now!
10-day predictions
NAVSPASUR ROD 1 is classified as:


NORAD ID: 1515
Int'l Code: 1965-065G
Perigee: 1,037.2 km
Apogee: 1,119.5 km
Inclination: 90.0 °
Period: 106.6 minutes
Semi major axis: 7449 km
RCS: 0.0574 m2 (small)
Launch date: August 13, 1965
Source: United States (US)
Launch site: AIR FORCE WESTERN TEST RANGE (AFWTR)
Your satellite tracking list
Your tracking list is empty




NASA's NSSDC Master Catalog

Two Line Element Set (TLE):
1 01515U 65065G   24325.65775199  .00000756  00000-0  11585-2 0  9999
2 01515  89.9900 213.8607 0055186 173.6080 214.7726 13.50285774902907
Source of the keplerian elements: AFSPC